Time,TemperatureF,DewpointF,PressureIn,WindDirection,WindDirectionDegrees,WindSpeedMPH,WindSpeedGustMPH,Humidity,HourlyPrecipIn,Conditions,Clouds,dailyrainin,SoftwareType,DateUTC
2013-05-01 00:01:00,71.0,37.0,29.77,WSW,252,3.0,6.0,29,0.00,,,0.00,,2013-05-01 07:01:00,
2013-05-01 00:11:00,71.0,37.0,29.77,WSW,252,3.0,6.0,29,0.00,,,0.00,,2013-05-01 07:11:00,
2013-05-01 00:21:00,72.0,37.0,29.78,North,358,11.0,14.0,28,0.00,,,0.00,,2013-05-01 07:21:00,
2013-05-01 00:32:00,72.0,37.0,29.78,North,360,12.0,21.0,28,0.00,,,0.00,,2013-05-01 07:32:00,
2013-05-01 00:41:00,72.0,37.0,29.78,North,360,12.0,21.0,28,0.00,,,0.00,,2013-05-01 07:41:00,
2013-05-01 00:52:00,72.0,37.0,29.80,North,358,14.0,19.0,28,0.00,,,0.00,,2013-05-01 07:52:00,
2013-05-01 01:01:00,72.0,35.0,29.80,North,358,17.0,26.0,26,0.00,,,0.00,,2013-05-01 08:01:00,
2013-05-01 01:11:00,72.0,35.0,29.80,North,358,17.0,26.0,26,0.00,,,0.00,,2013-05-01 08:11:00,
2013-05-01 01:21:00,74.0,20.0,29.82,NW,316,18.0,33.0,13,0.00,,,0.00,,2013-05-01 08:21:00,
2013-05-01 01:31:00,74.0,20.0,29.82,North,357,17.0,26.0,13,0.00,,,0.00,,2013-05-01 08:31:00,
2013-05-01 01:53:00,73.0,15.0,29.85,North,350,22.0,32.0,11,0.00,,,0.00,,2013-05-01 08:53:00,
2013-05-01 02:01:00,73.0,15.0,29.85,NNW,347,23.0,34.0,11,0.00,,,0.00,,2013-05-01 09:01:00,
2013-05-01 02:21:00,72.0,15.0,29.86,NW,316,22.0,36.0,11,0.00,,,0.00,,2013-05-01 09:21:00,
2013-05-01 02:33:00,72.0,15.0,29.86,NNW,344,26.0,36.0,11,0.00,,,0.00,,2013-05-01 09:33:00,
2013-05-01 02:53:00,72.0,15.0,29.87,NNW,339,25.0,33.0,11,0.00,,,0.00,,2013-05-01 09:53:00,
2013-05-01 03:02:00,71.0,14.0,29.87,North,356,25.0,37.0,11,0.00,,,0.00,,2013-05-01 10:02:00,
2013-05-01 03:22:00,70.0,11.0,29.89,North,356,22.0,38.0,10,0.00,,,0.00,,2013-05-01 10:22:00,
2013-05-01 03:32:00,70.0,11.0,29.89,NW,324,25.0,38.0,10,0.00,,,0.00,,2013-05-01 10:32:00,
2013-05-01 03:42:00,70.0,11.0,29.89,NW,324,25.0,38.0,10,0.00,,,0.00,,2013-05-01 10:42:00,
2013-05-01 03:52:00,69.0,8.0,29.91,NNW,346,19.0,38.0,9,0.00,,,0.00,,2013-05-01 10:52:00,
2013-05-01 04:02:00,69.0,8.0,29.91,NNW,341,30.0,39.0,9,0.00,,,0.00,,2013-05-01 11:02:00,
2013-05-01 04:21:00,69.0,8.0,29.93,NNW,338,27.0,39.0,9,0.00,,,0.00,,2013-05-01 11:21:00,
2013-05-01 04:32:00,68.0,7.0,29.93,North,355,26.0,39.0,9,0.00,,,0.00,,2013-05-01 11:32:00,
2013-05-01 04:42:00,68.0,7.0,29.93,North,355,26.0,39.0,9,0.00,,,0.00,,2013-05-01 11:42:00,
2013-05-01 04:52:00,68.0,5.0,29.92,NW,323,34.0,40.0,8,0.00,,,0.00,,2013-05-01 11:52:00,
2013-05-01 05:01:00,67.0,4.0,29.92,NNW,335,30.0,39.0,8,0.00,,,0.00,,2013-05-01 12:01:00,
2013-05-01 05:11:00,67.0,4.0,29.94,NNW,337,27.0,40.0,8,0.00,,,0.00,,2013-05-01 12:11:00,
2013-05-01 05:21:00,67.0,4.0,29.94,NNW,337,27.0,40.0,8,0.00,,,0.00,,2013-05-01 12:21:00,
2013-05-01 05:31:00,66.0,3.0,29.94,NNW,334,28.0,40.0,8,0.00,,,0.00,,2013-05-01 12:31:00,
2013-05-01 05:41:00,66.0,3.0,29.94,NNW,334,28.0,40.0,8,0.00,,,0.00,,2013-05-01 12:41:00,
2013-05-01 05:52:00,66.0,3.0,29.96,NNW,344,30.0,37.0,8,0.00,,,0.00,,2013-05-01 12:52:00,
2013-05-01 06:01:00,66.0,3.0,29.96,NNW,347,28.0,39.0,8,0.00,,,0.00,,2013-05-01 13:01:00,
2013-05-01 06:11:00,66.0,3.0,29.96,NNW,347,28.0,39.0,8,0.00,,,0.00,,2013-05-01 13:11:00,
2013-05-01 06:21:00,65.0,2.0,29.99,North,352,25.0,35.0,8,0.00,,,0.00,,2013-05-01 13:21:00,
2013-05-01 06:31:00,65.0,2.0,29.99,NNW,347,26.0,34.0,8,0.00,,,0.00,,2013-05-01 13:31:00,
2013-05-01 06:42:00,65.0,2.0,29.99,NNW,347,26.0,34.0,8,0.00,,,0.00,,2013-05-01 13:42:00,
2013-05-01 06:52:00,65.0,2.0,30.02,NNW,345,24.0,40.0,8,0.00,,,0.00,,2013-05-01 13:52:00,
2013-05-01 07:01:00,65.0,2.0,30.02,NNW,339,23.0,36.0,8,0.00,,,0.00,,2013-05-01 14:01:00,
2013-05-01 07:11:00,65.0,2.0,30.02,NNW,339,23.0,36.0,8,0.00,,,0.00,,2013-05-01 14:11:00,
2013-05-01 07:21:00,65.0,-1.0,30.04,NNW,338,20.0,37.0,7,0.00,,,0.00,,2013-05-01 14:21:00,
2013-05-01 07:31:00,65.0,2.0,30.04,North,352,27.0,37.0,8,0.00,,,0.00,,2013-05-01 14:31:00,
2013-05-01 07:41:00,65.0,2.0,30.04,North,352,27.0,37.0,8,0.00,,,0.00,,2013-05-01 14:41:00,
2013-05-01 07:52:00,66.0,0.0,30.04,NNW,345,22.0,37.0,7,0.00,,,0.00,,2013-05-01 14:52:00,
2013-05-01 08:01:00,67.0,1.0,30.04,NW,316,26.0,33.0,7,0.00,,,0.00,,2013-05-01 15:01:00,
2013-05-01 08:11:00,67.0,1.0,30.04,NW,316,26.0,33.0,7,0.00,,,0.00,,2013-05-01 15:11:00,
2013-05-01 08:21:00,67.0,-2.0,30.05,NNW,338,26.0,38.0,6,0.00,,,0.00,,2013-05-01 15:21:00,
2013-05-01 08:32:00,67.0,-2.0,30.05,NW,318,29.0,40.0,6,0.00,,,0.00,,2013-05-01 15:32:00,
2013-05-01 08:42:00,67.0,-2.0,30.05,NW,318,29.0,40.0,6,0.00,,,0.00,,2013-05-01 15:42:00,
2013-05-01 08:53:00,68.0,-2.0,30.07,NNW,328,22.0,35.0,6,0.00,,,0.00,,2013-05-01 15:53:00,
2013-05-01 09:02:00,69.0,-1.0,30.07,NNW,341,27.0,37.0,6,0.00,,,0.00,,2013-05-01 16:02:00,
2013-05-01 09:12:00,69.0,-1.0,30.07,NNW,341,27.0,37.0,6,0.00,,,0.00,,2013-05-01 16:12:00,
2013-05-01 09:22:00,70.0,0.0,30.08,NNW,342,23.0,35.0,6,0.00,,,0.00,,2013-05-01 16:22:00,
2013-05-01 09:31:00,71.0,1.0,30.08,North,358,25.0,33.0,6,0.00,,,0.00,,2013-05-01 16:31:00,
2013-05-01 09:42:00,71.0,1.0,30.08,North,358,25.0,33.0,6,0.00,,,0.00,,2013-05-01 16:42:00,
2013-05-01 09:53:00,72.0,1.0,30.09,NNW,337,22.0,30.0,6,0.00,,,0.00,,2013-05-01 16:53:00,
2013-05-01 10:02:00,72.0,1.0,30.09,NW,319,18.0,34.0,6,0.00,,,0.00,,2013-05-01 17:02:00,
2013-05-01 10:11:00,72.0,1.0,30.09,NW,319,18.0,34.0,6,0.00,,,0.00,,2013-05-01 17:11:00,
2013-05-01 10:21:00,73.0,2.0,30.09,North,352,22.0,32.0,6,0.00,,,0.00,,2013-05-01 17:21:00,
2013-05-01 10:31:00,74.0,3.0,30.09,North,354,23.0,29.0,6,0.00,,,0.00,,2013-05-01 17:31:00,
2013-05-01 10:41:00,74.0,3.0,30.09,North,354,23.0,29.0,6,0.00,,,0.00,,2013-05-01 17:41:00,
2013-05-01 10:52:00,74.0,3.0,30.10,NW,323,24.0,31.0,6,0.00,,,0.00,,2013-05-01 17:52:00,
2013-05-01 11:01:00,75.0,3.0,30.10,NNW,333,25.0,33.0,6,0.00,,,0.00,,2013-05-01 18:01:00,
2013-05-01 11:11:00,75.0,3.0,30.10,NNW,333,25.0,33.0,6,0.00,,,0.00,,2013-05-01 18:11:00,
2013-05-01 11:22:00,76.0,0.0,30.10,NW,319,22.0,32.0,5,0.00,,,0.00,,2013-05-01 18:22:00,
2013-05-01 11:32:00,77.0,1.0,30.10,NNW,328,20.0,31.0,5,0.00,,,0.00,,2013-05-01 18:32:00,
2013-05-01 11:41:00,77.0,1.0,30.10,NNW,328,20.0,31.0,5,0.00,,,0.00,,2013-05-01 18:41:00,
2013-05-01 11:52:00,77.0,1.0,30.10,NNW,340,23.0,33.0,5,0.00,,,0.00,,2013-05-01 18:52:00,
2013-05-01 12:01:00,78.0,2.0,30.10,North,360,19.0,28.0,5,0.00,,,0.00,,2013-05-01 19:01:00,
2013-05-01 12:11:00,78.0,2.0,30.10,North,360,19.0,28.0,5,0.00,,,0.00,,2013-05-01 19:11:00,
2013-05-01 12:22:00,79.0,6.0,30.10,NNE,20,15.0,29.0,6,0.00,,,0.00,,2013-05-01 19:22:00,
2013-05-01 12:31:00,79.0,2.0,30.10,NNW,345,12.0,23.0,5,0.00,,,0.00,,2013-05-01 19:31:00,
2013-05-01 12:42:00,79.0,2.0,30.10,NNW,345,12.0,23.0,5,0.00,,,0.00,,2013-05-01 19:42:00,
2013-05-01 12:52:00,80.0,3.0,30.12,North,2,10.0,18.0,5,0.00,,,0.00,,2013-05-01 19:52:00,
2013-05-01 13:01:00,80.0,7.0,30.12,NE,40,6.0,27.0,6,0.00,,,0.00,,2013-05-01 20:01:00,
2013-05-01 13:11:00,80.0,7.0,30.12,NE,40,6.0,27.0,6,0.00,,,0.00,,2013-05-01 20:11:00,
2013-05-01 13:21:00,81.0,4.0,30.11,North,358,17.0,20.0,5,0.00,,,0.00,,2013-05-01 20:21:00,
2013-05-01 13:31:00,81.0,4.0,30.11,North,9,8.0,19.0,5,0.00,,,0.00,,2013-05-01 20:31:00,
2013-05-01 13:42:00,81.0,4.0,30.11,North,9,8.0,19.0,5,0.00,,,0.00,,2013-05-01 20:42:00,
2013-05-01 13:52:00,81.0,-1.0,30.13,NNE,19,12.0,19.0,4,0.00,,,0.00,,2013-05-01 20:52:00,
2013-05-01 14:01:00,81.0,-1.0,30.13,North,356,14.0,19.0,4,0.00,,,0.00,,2013-05-01 21:01:00,
2013-05-01 14:11:00,81.0,-1.0,30.13,North,356,14.0,19.0,4,0.00,,,0.00,,2013-05-01 21:11:00,
2013-05-01 14:21:00,81.0,-1.0,30.12,North,5,14.0,21.0,4,0.00,,,0.00,,2013-05-01 21:21:00,
2013-05-01 14:32:00,81.0,-1.0,30.12,North,360,7.0,17.0,4,0.00,,,0.00,,2013-05-01 21:32:00,
2013-05-01 14:42:00,81.0,-1.0,30.12,North,360,7.0,17.0,4,0.00,,,0.00,,2013-05-01 21:42:00,
2013-05-01 14:53:00,81.0,-1.0,30.10,NE,43,5.0,16.0,4,0.00,,,0.00,,2013-05-01 21:53:00,
2013-05-01 15:02:00,82.0,0.0,30.10,ENE,58,12.0,19.0,4,0.00,,,0.00,,2013-05-01 22:02:00,
2013-05-01 15:12:00,82.0,0.0,30.10,ENE,58,12.0,19.0,4,0.00,,,0.00,,2013-05-01 22:12:00,
2013-05-01 15:22:00,82.0,0.0,30.12,North,8,12.0,19.0,4,0.00,,,0.00,,2013-05-01 22:22:00,
2013-05-01 15:32:00,82.0,0.0,30.12,NNE,23,5.0,14.0,4,0.00,,,0.00,,2013-05-01 22:32:00,
2013-05-01 15:42:00,82.0,0.0,30.12,NNE,23,5.0,14.0,4,0.00,,,0.00,,2013-05-01 22:42:00,
2013-05-01 15:53:00,82.0,-6.0,30.10,North,6,6.0,15.0,3,0.00,,,0.00,,2013-05-01 22:53:00,
2013-05-01 16:01:00,83.0,-6.0,30.10,NE,56,4.0,15.0,3,0.00,,,0.00,,2013-05-01 23:01:00,
2013-05-01 16:11:00,83.0,-6.0,30.10,NE,56,4.0,15.0,3,0.00,,,0.00,,2013-05-01 23:11:00,
2013-05-01 16:21:00,83.0,-6.0,30.12,East,89,10.0,26.0,3,0.00,,,0.00,,2013-05-01 23:21:00,
2013-05-01 16:31:00,83.0,-6.0,30.12,ENE,70,12.0,22.0,3,0.00,,,0.00,,2013-05-01 23:31:00,
2013-05-01 16:42:00,83.0,-6.0,30.12,ENE,70,12.0,22.0,3,0.00,,,0.00,,2013-05-01 23:42:00,
2013-05-01 16:52:00,82.0,-14.0,30.10,East,91,17.0,20.0,2,0.00,,,0.00,,2013-05-01 23:52:00,
2013-05-01 17:01:00,82.0,-14.0,30.10,ENE,57,11.0,21.0,2,0.00,,,0.00,,2013-05-02 00:01:00,
2013-05-01 17:11:00,82.0,-14.0,30.10,ENE,57,11.0,21.0,2,0.00,,,0.00,,2013-05-02 00:11:00,
2013-05-01 17:21:00,82.0,-14.0,30.10,East,88,13.0,19.0,2,0.00,,,0.00,,2013-05-02 00:21:00,
2013-05-01 17:31:00,82.0,-14.0,30.10,ENE,71,12.0,17.0,2,0.00,,,0.00,,2013-05-02 00:31:00,
2013-05-01 17:52:00,82.0,-14.0,30.10,East,88,12.0,19.0,2,0.00,,,0.00,,2013-05-02 00:52:00,
2013-05-01 18:01:00,82.0,-14.0,30.10,ENE,77,16.0,19.0,2,0.00,,,0.00,,2013-05-02 01:01:00,
2013-05-01 18:11:00,82.0,-14.0,30.10,ENE,77,16.0,19.0,2,0.00,,,0.00,,2013-05-02 01:11:00,
2013-05-01 18:21:00,81.0,-15.0,30.11,East,86,12.0,18.0,2,0.00,,,0.00,,2013-05-02 01:21:00,
2013-05-01 18:32:00,81.0,-15.0,30.11,ENE,70,11.0,18.0,2,0.00,,,0.00,,2013-05-02 01:32:00,
2013-05-01 18:41:00,81.0,-15.0,30.11,ENE,70,11.0,18.0,2,0.00,,,0.00,,2013-05-02 01:41:00,
2013-05-01 18:52:00,81.0,-15.0,30.11,East,79,10.0,15.0,2,0.00,,,0.00,,2013-05-02 01:52:00,
2013-05-01 19:01:00,80.0,-16.0,30.11,East,89,11.0,18.0,2,0.00,,,0.00,,2013-05-02 02:01:00,
2013-05-01 19:11:00,80.0,-16.0,30.11,East,89,11.0,18.0,2,0.00,,,0.00,,2013-05-02 02:11:00,
2013-05-01 19:21:00,79.0,-16.0,30.12,ENE,68,11.0,16.0,2,0.00,,,0.00,,2013-05-02 02:21:00,
2013-05-01 19:31:00,79.0,-16.0,30.12,ENE,74,7.0,12.0,2,0.00,,,0.00,,2013-05-02 02:31:00,
2013-05-01 19:42:00,79.0,-16.0,30.12,ENE,74,7.0,12.0,2,0.00,,,0.00,,2013-05-02 02:42:00,
2013-05-01 19:51:00,79.0,-16.0,30.12,ENE,74,7.0,12.0,2,0.00,,,0.00,,2013-05-02 02:51:00,
2013-05-01 20:01:00,76.0,-10.0,30.13,ENE,61,3.0,10.0,3,0.00,,,0.00,,2013-05-02 03:01:00,
2013-05-01 20:11:00,76.0,-10.0,30.13,ENE,61,3.0,10.0,3,0.00,,,0.00,,2013-05-02 03:11:00,
2013-05-01 20:21:00,74.0,-12.0,30.16,NE,49,4.0,4.0,3,0.00,,,0.00,,2013-05-02 03:21:00,
2013-05-01 20:32:00,73.0,-12.0,30.16,NE,49,3.0,5.0,3,0.00,,,0.00,,2013-05-02 03:32:00,
2013-05-01 20:42:00,73.0,-12.0,30.16,NE,49,3.0,5.0,3,0.00,,,0.00,,2013-05-02 03:42:00,
2013-05-01 20:53:00,71.0,-8.0,30.16,North,11,3.0,4.0,4,0.00,,,0.00,,2013-05-02 03:53:00,
2013-05-01 21:02:00,70.0,-9.0,30.16,North,360,3.0,5.0,4,0.00,,,0.00,,2013-05-02 04:02:00,
2013-05-01 21:12:00,70.0,-9.0,30.16,North,360,3.0,5.0,4,0.00,,,0.00,,2013-05-02 04:12:00,
2013-05-01 21:22:00,70.0,-14.0,30.18,North,349,0.0,6.0,3,0.00,,,0.00,,2013-05-02 04:22:00,
2013-05-01 21:33:00,70.0,-9.0,30.18,North,349,3.0,5.0,4,0.00,,,0.00,,2013-05-02 04:33:00,
2013-05-01 21:42:00,70.0,-9.0,30.18,North,349,3.0,5.0,4,0.00,,,0.00,,2013-05-02 04:42:00,
2013-05-01 21:52:00,69.0,-9.0,30.19,NNW,345,5.0,9.0,4,0.00,,,0.00,,2013-05-02 04:52:00,
2013-05-01 22:02:00,69.0,-9.0,30.19,North,357,5.0,9.0,4,0.00,,,0.00,,2013-05-02 05:02:00,
2013-05-01 22:11:00,69.0,-9.0,30.19,North,357,5.0,9.0,4,0.00,,,0.00,,2013-05-02 05:11:00,
2013-05-01 22:22:00,69.0,-9.0,30.20,North,360,2.0,8.0,4,0.00,,,0.00,,2013-05-02 05:22:00,
2013-05-01 22:32:00,68.0,-10.0,30.20,ENE,68,3.0,5.0,4,0.00,,,0.00,,2013-05-02 05:32:00,
2013-05-01 22:42:00,68.0,-10.0,30.20,ENE,68,3.0,5.0,4,0.00,,,0.00,,2013-05-02 05:42:00,
2013-05-01 22:52:00,67.0,-11.0,30.20,North,356,2.0,6.0,4,0.00,,,0.00,,2013-05-02 05:52:00,
2013-05-01 23:01:00,66.0,-7.0,30.20,North,356,0.0,3.0,5,0.00,,,0.00,,2013-05-02 06:01:00,
2013-05-01 23:11:00,66.0,-7.0,30.20,North,356,0.0,3.0,5,0.00,,,0.00,,2013-05-02 06:11:00,
2013-05-01 23:21:00,64.0,-8.0,30.22,North,357,0.0,3.0,5,0.00,,,0.00,,2013-05-02 06:21:00,
2013-05-01 23:31:00,62.0,-10.0,30.22,North,357,1.0,2.0,5,0.00,,,0.00,,2013-05-02 06:31:00,
2013-05-01 23:42:00,62.0,-10.0,30.22,North,357,1.0,2.0,5,0.00,,,0.00,,2013-05-02 06:42:00,
2013-05-01 23:52:00,59.0,-12.0,30.20,SSE,150,5.0,8.0,5,0.00,,,0.00,,2013-05-02 06:52:00,